Home   Weather   Kemi   Past weeks

Flag for Finland Past Weather in Kemi, Finland — Yesterday and Last 2 Weeks

Now
28 °F

Passing clouds.


Feels Like: 20 °F
Forecast: 17 / 37 °F
Wind: 8 mph from West

Location: Kemi Airport

Current Time: Jan 18, 2017 at 1:39:41 am

Latest Report: Jan 18, 2017 at 12:50 am


Visibility: N/A

Pressure: 29.95 "Hg

Humidity: 93%

Dew Point: 27 °F

Location of KemiLocation

Past Weather in Kemi — Graph

°F

Kemi Temperature Yesterday

Maximum temperature yesterday: 30 °F (at 12:20 pm)
Minimum temperature yesterday: 7 °F (at 12:20 am)
Average temperature yesterday: 25 °F

High & Low Weather Summary for the Past Weeks

 TemperatureHumidityPressure
High37 °F (Jan 8, 9:20 pm)100% (Jan 6, 2:20 pm)30.51 "Hg (Jan 6, 2:20 pm)
Low-27 °F (Jan 5, 8:20 pm)69% (Jan 9, 3:50 pm)29.03 "Hg (Jan 12, 6:50 pm)
Average15 °F88%29.68 "Hg
* Reported Jan 3 12:20 am — Jan 18 12:20 am, Kemi, Weather by CustomWeather, © 2017

Note: Actual official high and low records may vary slightly from our data, if they occured in-between our weather recording intervals... More about our weather records

Advertising

Kemi Weather History for the Previous 24 Hours

Scroll right to see more
 ConditionsComfort  
Time TempWeatherWind HumidityBarometerVisibility
12:20 am
Wed, Jan 18
30 °FPassing clouds.9 mph86%29.95 "HgN/A
11:50 pm
Tue, Jan 17
28 °FPassing clouds.8 mph93%29.95 "HgN/A
11:20 pm28 °FPassing clouds.6 mph86%29.92 "HgN/A
10:50 pm27 °FPassing clouds.6 mph93%29.92 "HgN/A
10:20 pm27 °FPassing clouds.5 mph93%29.92 "HgN/A
9:50 pm28 °FPassing clouds.8 mph86%29.92 "HgN/A
9:20 pm28 °FPassing clouds.8 mph93%29.92 "HgN/A
8:50 pm27 °FClear.7 mph100%29.92 "Hg10 mi
8:20 pm28 °FClear.9 mph93%29.92 "Hg10 mi
7:50 pm28 °FClear.10 mph93%29.92 "Hg10 mi
7:20 pm28 °FClear.10 mph93%29.92 "Hg10 mi
6:50 pm28 °FPassing clouds.8 mph93%29.92 "HgN/A
6:20 pm28 °FPassing clouds.7 mph100%29.95 "HgN/A
5:50 pm30 °FMostly cloudy.6 mph93%29.95 "HgN/A
5:20 pm30 °FLow clouds.8 mph93%29.95 "HgN/A
4:50 pm30 °FLow clouds.12 mph93%29.95 "HgN/A
4:20 pm30 °FLow clouds.12 mph93%29.98 "HgN/A
3:50 pm30 °FLow clouds.14 mph93%29.98 "HgN/A
3:20 pm30 °FLow clouds.15 mph93%29.98 "HgN/A
2:50 pm30 °FOvercast.14 mph93%29.98 "HgN/A
2:20 pm30 °FOvercast.17 mph93%29.98 "HgN/A
1:50 pm30 °FOvercast.15 mph93%30.01 "HgN/A
1:20 pm30 °FLow clouds.14 mph93%30.01 "HgN/A
12:50 pm30 °FLow clouds.15 mph100%30.01 "HgN/A
12:20 pm30 °FLow clouds.16 mph93%30.04 "HgN/A
11:50 am28 °FSnow flurries. Low clouds.16 mph100%30.04 "Hg4 mi
11:20 am28 °FSnow flurries. Low clouds.15 mph93%30.04 "Hg4 mi
10:50 am27 °FLight snow. Low clouds.16 mph93%30.07 "Hg4 mi
10:20 am25 °FLow clouds.15 mph100%30.07 "HgN/A
9:50 am25 °FLow clouds.15 mph93%30.07 "HgN/A
9:20 am25 °FLow clouds.16 mph93%30.07 "Hg6 mi
8:50 am25 °FLight snow. Low clouds.14 mph93%30.07 "Hg4 mi
8:20 am25 °FSnow flurries. Low clouds.14 mph93%30.09 "Hg4 mi
7:50 am25 °FSnow flurries. Low clouds.14 mph100%30.09 "Hg4 mi
7:20 am27 °FLow clouds.13 mph93%30.09 "Hg5 mi
6:50 am27 °FLow clouds.13 mph100%30.09 "HgN/A
6:20 am27 °FLow clouds.14 mph100%30.09 "HgN/A
5:50 am27 °FLow clouds.12 mph93%30.09 "Hg6 mi
5:20 am25 °FLight snow. Low clouds.8 mph100%30.12 "HgN/A
4:50 am25 °FLight snow. Low clouds.7 mph93%30.12 "Hg6 mi
4:20 am21 °FLow clouds.6 mph100%30.12 "Hg3 mi
3:50 am18 °FIce fog.3 mph100%30.15 "Hg1 mi
3:20 am16 °FIce fog.3 mph100%30.15 "Hg1 mi
2:50 am16 °FIce fog.5 mph93%30.15 "Hg1 mi
2:20 am14 °FSnow flurries. Low clouds.3 mph92%30.18 "Hg4 mi
1:50 am12 °FSnow flurries. Low clouds.3 mph92%30.18 "Hg3 mi
1:20 am10 °FLight snow. Low clouds.2 mph85%30.18 "HgN/A
Weather by CustomWeather, © 2017

See weather overviewHow to use our weather pages